Location: Killam
(52.7910°N, 111.8608°W)
Time: 08:38:16
(UTC+00:00)

NOAA 15 - Pass Details

Date: 17 December 2025
Orbit: 793 x 809 km, 98.5° (Epoch: 24 January)

Event Time Altitude Azimuth Distance (km) Brightness Sun altitude
Rises 02:40:08 0° 193° (SSW) 3,314 7.9 -29.9°
Reaches altitude 10° 02:42:43 10° 204° (SSW) 2,386 7.3 -30.3°
Maximum altitude 02:47:23 31° 266° (W) 1,380 6.3 -31.0°
Drops below altitude 10° 02:52:04 10° 328° (NNW) 2,393 7.4 -31.7°
Sets 02:54:40 0° 339° (NNW) 3,326 8.1 -32.1°
